Find Starlink 32881

NORAD ID: 62997 Int'l Des: 2025-031 Owner: SPXS Country: US Constellation: starlink operational
LEOCIRCULAR

Live-Position

3D-Globus wird geladen...

Über Starlink 32881

Beschreibung wird geladen...

Nächste Überflüge

Passes for default location (London). Set your location on the main map for personalized predictions.

Höhenverlauf

Loading altitude history...

Zweizeiliger Elementsatz

1 62997U 25031S 26126.20480367 .00013350 00000-0 49363-3 0 9991
2 62997 42.9979 178.3222 0001805 172.3448 187.7431 15.27588532 69892
Epoch: 6. Mai 2026 • Age: 19 hours

Aktueller Status

Höhe 486.1 km
Geschwindigkeit 7.63 km/s
Subsatellitenpunkt 42.07°N, 21.96°E
Startdatum 11. Feb. 2025
Alter 1.2 years
Typ internet

Technische Details

Klassifizierung Payload
Masse 730.00 kg
Trockenmasse 700.00 kg
Gesamtmasse 730.00 kg
Länge 0.30 m
Durchmesser 4.10 m
Spannweite 29.00 m
Form Box + pan
Hersteller SPXS
Bus-Typ Starlink V2M
Phasenstatus In Orbit
Besitzer/Staat SPXS/US

Most Searched